Flag for Malta Weather past 2 weeks in Valletta, Malta

Now
79 °F

Clear.


Feels Like: 81 °F
Forecast: 79 / 89 °F
Wind: 8 mph from West

Location: Luqa

Current Time: Sep 2, 2015 at 9:21:32 PM

Latest Report: Sep 2, 2015 at 8:45 PM


Visibility: 10 mi

Pressure: 29.98 "Hg

Humidity: 74%

Dew point: 70 °F

Location of VallettaLocation

Historic Weather in Valletta — Graph

°F

Valletta temperature yesterday

Maximum temperature yesterday: 86 °F (at 10:45 AM)
Minimum temperature yesterday: 72 °F (at 3:15 AM)
Average temperature yesterday: 79 °F

Past Weeks' High & Low Weather Summary

 TemperatureHumidityPressure
High90 °F (Aug 19, 1:15 PM)94% (Aug 25, 1:45 AM)30.15 "Hg (Aug 25, 1:45 AM)
Low70 °F (Aug 23, 5:15 AM)38% (Sep 2, 1:15 PM)29.86 "Hg (Aug 19, 1:45 AM)
Average80 °F72%30.03 "Hg
* Reported Aug 18 8:15 PM — Sep 2 8:15 PM, Valletta, Weather by CustomWeather, © 2015

Note: Actual official high and low records may vary slightly from our data, if they occured in-between our weather recording intervals... More about our weather records

Advertising

Valletta weather history for previous 24 hours

 ConditionsComfort  
Time TempWeatherWind HumidityBarometerVisibility
8:15 PM
Wed, Sep 2
79 °FSunny.8 mph74%29.98 "Hg10 mi
7:45 PM79 °FSunny.13 mph74%29.95 "Hg10 mi
7:15 PM81 °FPassing clouds.13 mph70%29.95 "HgN/A
6:45 PM82 °FPassing clouds.14 mph66%29.95 "HgN/A
6:15 PM84 °FPassing clouds.13 mph58%29.95 "HgN/A
5:45 PM84 °FPassing clouds.12 mph58%29.95 "HgN/A
5:15 PM86 °FSunny.14 mph55%29.95 "Hg10 mi
4:45 PM86 °FSunny.14 mph52%29.95 "Hg10 mi
4:15 PM88 °FPassing clouds.14 mph49%29.95 "HgN/A
3:45 PM90 °FPassing clouds.15 mph41%29.95 "HgN/A
3:15 PM90 °FPassing clouds.13 mph41%29.98 "HgN/A
2:45 PM90 °FSunny.15 mph41%29.98 "Hg10 mi
2:15 PM90 °FPassing clouds.14 mph41%29.98 "HgN/A
1:45 PM90 °FPassing clouds.13 mph38%29.98 "HgN/A
1:15 PM90 °FPassing clouds.13 mph38%29.98 "HgN/A
12:45 PM90 °FPassing clouds.13 mph41%29.98 "HgN/A
12:15 PM90 °FPassing clouds.9 mph41%29.98 "HgN/A
11:45 AM88 °FSunny.12 mph46%29.98 "Hg10 mi
11:15 AM88 °FPassing clouds.14 mph46%29.98 "HgN/A
10:45 AM86 °FPassing clouds.13 mph52%29.98 "HgN/A
10:15 AM84 °FPassing clouds.13 mph62%29.98 "HgN/A
9:45 AM84 °FPassing clouds.13 mph66%29.98 "HgN/A
9:15 AM82 °FPassing clouds.13 mph70%29.95 "HgN/A
8:45 AM81 °FScattered clouds.13 mph74%29.95 "HgN/A
8:15 AM79 °FPassing clouds.7 mph84%29.95 "HgN/A
7:45 AM77 °FPassing clouds.6 mph89%29.95 "HgN/A
7:15 AM77 °FPassing clouds.6 mph83%29.95 "HgN/A
6:45 AM75 °FPassing clouds.6 mph89%29.95 "HgN/A
6:15 AM75 °FPassing clouds.6 mph89%29.95 "HgN/A
5:45 AM75 °FPassing clouds.6 mph89%29.92 "HgN/A
5:15 AM75 °FPassing clouds.6 mph89%29.92 "HgN/A
4:45 AM75 °FPassing clouds.5 mph89%29.92 "HgN/A
4:15 AM75 °FClear.6 mph89%29.92 "Hg10 mi
3:45 AM75 °FClear.7 mph89%29.92 "Hg10 mi
3:15 AM75 °FClear.6 mph89%29.95 "Hg10 mi
2:45 AM75 °FClear.5 mph89%29.95 "Hg10 mi
2:15 AM75 °FClear.3 mph89%29.95 "Hg10 mi
1:45 AM75 °FClear.5 mph83%29.95 "Hg10 mi
1:15 AM75 °FClear.5 mph83%29.95 "Hg10 mi
12:45 AM75 °FClear.5 mph83%29.95 "Hg10 mi
11:15 PM
Tue, Sep 1
77 °FPassing clouds.3 mph83%29.95 "HgN/A
10:45 PM77 °FPassing clouds.3 mph83%29.95 "HgN/A
10:15 PM77 °FClear.7 mph79%29.98 "Hg10 mi
9:45 PM77 °FClear.7 mph79%29.98 "Hg10 mi
9:15 PM77 °FClear.8 mph79%29.95 "Hg10 mi
Weather by CustomWeather, © 2015

See weather overviewHow to use our weather pages